STARLINK-1330 (45577 NORAD) Tracking and Keplerian Element Data

This shows tracking and keplerian element data for the satellite.

Feedback or suggestion? Click here.




ElementValue
Catalog45577
NameSTARLINK-1330
Epoch Orbit571
Epoch Day145.66667824
Epoch Year2020
RAAN242.1647
Inclination52.9981
Eccentricity0.0001194
Argument of Perigee82.164
Mean Anonmoly184.0266
Mean Motion15.62773412
Decay Rate0.00047801
L11 45577U 20025AY 20145.66667824 .00047801 00000-0 52438-3 0 9999
L22 45577 52.9981 242.1647 0001194 82.1640 184.0266 15.62773412 5714

Live tracking and technical data element details for STARLINK-1330 (NORAD 45577). STARLINK-1330 can be tracked NOW for your location showing map with azimuth and elevation plus other details from your city location.

Track the satellite on the map from your city or location and see movement details for azimuth, elevation, latitude, longitude, range, height, and movement on the map or in text.







IsCatalogInMostPopularTable: catalog: 45577, numindb: 6
Update: records affected: 1



GetName: 45577 STARLINK-1330

Hit Count: updated at: Tue, 26 May 2020 03:45:05 GMT